This is the latest recevied weather packets stored in our database for station/object KB3UMW-13. If no packets are shown the sender has not sent any weather packets the latest 10 day(s).
| Time | Temp. | Humidity | Pressure | Rain* | Wind** | Luminosity | Snow |
|---|---|---|---|---|---|---|---|
| 1777591764 | 6.11° C | 86% | 1012.7 hPa | 0 mm | - | 23 W/m² | - |
| 1777591459 | 6.11° C | 87% | 1012.5 hPa | 0 mm | - | 36 W/m² | - |
| 1777591155 | 6.11° C | 83% | 1012.6 hPa | 0 mm | - | 34 W/m² | - |
| 1777590849 | 6.11° C | 83% | 1012.6 hPa | 0 mm | - | 38 W/m² | - |
| 1777590547 | 6.67° C | 84% | 1012.5 hPa | 0 mm | - | 45 W/m² | - |
| 1777590241 | 6.67° C | 85% | 1012.5 hPa | 0 mm | - | 53 W/m² | - |
| 1777589934 | 6.67° C | 80% | 1012.7 hPa | 0 mm | - | 39 W/m² | - |
| 1777589629 | 6.67° C | 81% | 1012.5 hPa | 0 mm | - | 54 W/m² | - |
| 1777589321 | 6.67° C | 84% | 1012.7 hPa | 0 mm | - | 55 W/m² | - |
| 1777589019 | 6.67° C | 82% | 1012.7 hPa | 0 mm | - | 80 W/m² | - |
| 1777588715 | 6.67° C | 84% | 1012.7 hPa | 0 mm | - | 58 W/m² | - |
| 1777588410 | 6.67° C | 86% | 1012.8 hPa | 0 mm | - | 68 W/m² | - |
| 1777588105 | 7.22° C | 86% | 1012.8 hPa | 0 mm | - | 58 W/m² | - |
| 1777587802 | 6.67° C | 86% | 1012.8 hPa | 0 mm | - | 90 W/m² | - |
| 1777587501 | 6.67° C | 85% | 1012.9 hPa | 0 mm | - | 91 W/m² | - |
| 1777587193 | 6.67° C | 86% | 1013 hPa | 0 mm | - | 108 W/m² | - |
| 1777586887 | 6.67° C | 87% | 1012.7 hPa | 0 mm | - | 83 W/m² | - |
| 1777586584 | 6.67° C | 85% | 1012.7 hPa | 0 mm | - | 101 W/m² | - |
| 1777586279 | 6.67° C | 84% | 1012.7 hPa | 0 mm | - | 96 W/m² | - |
| 1777585977 | 6.67° C | 83% | 1012.6 hPa | 0 mm | - | 101 W/m² | - |
| 1777585672 | 6.67° C | 87% | 1012.5 hPa | 0 mm | - | 113 W/m² | - |
| 1777585367 | 7.22° C | 84% | 1012.6 hPa | 0 mm | - | 137 W/m² | - |
| 1777585062 | 6.67° C | 86% | 1012.7 hPa | 0 mm | - | 172 W/m² | - |
| 1777584758 | 6.67° C | 87% | 1012.6 hPa | 0 mm | - | 124 W/m² | - |
| 1777584456 | 6.67° C | 87% | 1012.5 hPa | 0 mm | - | 88 W/m² | - |
* Rain latest hour (hover to see other rain measurements)
** Current wind speed in m/s (hover to see current wind gust speed)